Location: *
(50.0228°S, 177.2688°W)
Time: 18:02:01
(UTC+00:00)

STARLINK-1053 - Pass Details

Date: 07 April 2020
Orbit: 548 x 551 km, 53.0° (Epoch: 25 May)

Event Time Altitude Azimuth Distance (km) Brightness Sun altitude
Rises 06:21:55 0° 272° (W) 2,744 9.5 -10.3°
Reaches altitude 10° 06:24:11 10° 267° (W) 1,851 7.9 -10.7°
Maximum altitude 06:28:21 58° 187° (S) 655 4.0 -11.3°
Enters shadow 06:31:38 16° 109° (ESE) 1,518 5.3 -11.9°
